PBO Station Position Time Series. Reference Frame : NAM14
Format Version,1.1.1
4-character ID,YFB1
Station name,Iqaluit_WAAS
Begin Date, 2008-04-25
End Date, 2023-06-26
Release Date, 2023-06-27
Reference position, 63.7314902550 North Latitude, -68.5431821789 East Longitude, 9.58382 meters elevation,
Date, North (mm), East (mm), Vertical (mm), North Std. Deviation (mm), East Std. Deviation (mm),              Vertical Std. Deviation (mm), Quality,
2008-04-25,0.00, 0.00, 36.13, 7.08, 4.66, 23.66, repro,
2008-04-26,4.31, 0.68, 0.00, 2.87, 2.08, 10.08, repro,
2008-04-27,5.59, 0.57, 3.10, 2.48, 1.73, 8.53, repro,
2008-04-28,6.08, -0.67, -2.80, 2.39, 1.66, 8.39, repro,
2008-04-29,5.91, -2.49, 3.69, 2.53, 1.78, 8.69, repro,
2008-04-30,7.15, 0.33, -0.36, 2.30, 1.58, 7.77, repro,
2008-05-01,6.85, 0.12, -5.69, 2.29, 1.61, 8.00, repro,
2008-05-02,5.46, 1.26, 3.44, 2.39, 1.65, 8.16, repro,
2008-05-03,8.00, -0.63, 7.79, 2.44, 1.70, 8.10, repro,
2008-05-04,9.64, -0.80, 12.01, 2.36, 1.67, 8.33, repro,
2008-05-05,5.24, 0.29, 7.74, 2.40, 1.64, 8.17, repro,
2008-05-06,4.29, -1.69, 3.99, 2.39, 1.70, 8.20, repro,
2008-05-07,3.68, -0.95, 7.45, 2.40, 1.66, 8.10, repro,
2008-05-08,4.23, -0.34, 5.63, 2.22, 1.55, 7.70, repro,
2008-05-09,3.89, -0.94, 1.55, 2.24, 1.56, 7.74, repro,
2008-05-10,5.59, -1.49, 3.08, 2.18, 1.54, 7.59, repro,
2008-05-11,5.26, -0.41, 9.40, 2.21, 1.56, 7.73, repro,
2008-05-12,4.46, 1.56, 11.18, 2.24, 1.57, 7.66, repro,
2008-05-13,4.05, 1.25, 4.28, 2.33, 1.59, 7.87, repro,
2008-05-14,5.41, -0.58, 7.70, 2.26, 1.59, 7.65, repro,
2008-05-15,5.06, -0.60, 4.72, 2.19, 1.54, 7.63, repro,
2008-05-16,9.89, 0.78, 3.28, 2.21, 1.54, 7.69, repro,
2008-05-17,10.16, -1.09, 7.19, 2.25, 1.56, 7.78, repro,
2008-05-18,7.19, -0.93, 12.01, 2.20, 1.53, 7.62, repro,
2008-05-19,7.45, 0.01, 4.89, 2.38, 1.64, 7.93, repro,
2008-05-20,7.98, -1.84, 7.27, 2.51, 1.75, 8.42, repro,
2008-05-21,7.95, -0.47, 10.32, 2.41, 1.67, 8.04, repro,
2008-05-22,6.06, -0.00, 9.92, 2.67, 1.79, 8.64, repro,
2008-05-23,6.47, -0.44, 7.10, 2.59, 1.83, 8.61, repro,
2008-05-24,4.36, 1.00, 2.10, 2.31, 1.60, 7.87, repro,
2008-05-25,4.73, 0.37, 14.84, 2.44, 1.65, 8.30, repro,
2008-05-26,7.70, -0.14, 15.98, 2.20, 1.55, 7.61, repro,
2008-05-27,5.79, 0.64, 10.80, 2.26, 1.61, 7.87, repro,
2008-05-28,5.88, 0.60, 11.29, 2.59, 1.81, 8.58, repro,
2008-05-29,6.41, 1.00, 8.75, 2.33, 1.62, 7.85, repro,
2008-05-30,7.00, -0.44, 11.64, 2.27, 1.57, 7.69, repro,
2008-05-31,8.71, -0.60, 21.72, 2.31, 1.64, 8.02, repro,
2008-06-01,7.82, 0.21, 13.47, 2.31, 1.58, 7.86, repro,
2008-06-02,7.33, -0.18, 12.95, 2.32, 1.58, 7.79, repro,
2008-06-03,8.69, 1.21, 6.63, 2.31, 1.60, 7.93, repro,
2008-06-04,7.81, 1.36, 9.87, 2.29, 1.63, 7.69, repro,
2008-06-05,6.76, 1.71, 13.06, 2.19, 1.53, 7.55, repro,
2008-06-06,7.66, 1.49, 14.52, 2.29, 1.63, 8.03, repro,
2008-06-07,5.52, 2.64, 15.30, 2.72, 1.86, 9.68, repro,
2008-06-08,7.51, 0.22, 11.16, 2.47, 1.71, 8.14, repro,
2008-06-09,8.90, 2.50, 13.85, 2.40, 1.65, 7.96, repro,
2008-06-10,8.33, 0.41, 6.72, 2.21, 1.54, 7.59, repro,
2008-06-11,8.90, 0.93, 15.20, 2.30, 1.61, 7.89, repro,
2008-06-12,7.48, 0.67, 4.67, 2.39, 1.61, 7.99, repro,
2008-06-13,8.21, 0.80, 7.68, 2.25, 1.57, 7.71, repro,
2008-06-14,9.41, -0.52, 6.83, 2.26, 1.60, 8.00, repro,
2008-06-15,7.55, -0.69, 11.18, 2.37, 1.67, 8.80, repro,
2008-06-16,9.23, 0.63, 10.02, 2.51, 1.74, 8.46, repro,
2008-06-17,8.74, 0.93, 12.91, 2.54, 1.77, 8.70, repro,
2008-06-20,9.78, 0.68, 3.56, 2.33, 1.62, 7.93, repro,
2008-06-21,7.92, -1.35, 10.38, 2.34, 1.66, 7.98, repro,
2008-06-22,9.57, -0.01, 14.21, 2.26, 1.58, 7.79, repro,
2008-06-23,8.16, -0.10, 15.10, 2.28, 1.61, 7.92, repro,
2008-06-24,7.95, -0.79, 7.26, 2.25, 1.57, 7.69, repro,
2008-06-25,9.31, -0.88, 7.59, 2.40, 1.63, 8.11, repro,
2008-06-26,8.65, -1.90, 11.12, 2.40, 1.65, 8.21, repro,
2008-06-27,9.69, -0.16, 11.51, 2.38, 1.64, 7.98, repro,
2008-06-28,8.47, -0.78, 10.49, 2.22, 1.55, 7.72, repro,
2008-06-29,8.33, -1.36, 10.16, 2.37, 1.64, 8.26, repro,
2008-06-30,8.71, -0.06, 8.48, 2.45, 1.67, 8.26, repro,
2008-07-01,9.80, 0.98, 10.69, 2.21, 1.54, 7.62, repro,
2008-07-02,8.79, -0.60, 12.87, 2.23, 1.57, 7.70, repro,
2008-07-03,8.63, 0.81, 8.25, 2.27, 1.57, 7.82, repro,
2008-07-04,6.41, 0.42, 17.57, 2.19, 1.52, 7.58, repro,
2008-07-05,7.40, -0.41, 11.20, 2.26, 1.56, 7.69, repro,
2008-07-06,8.01, -0.31, 11.75, 2.32, 1.63, 8.14, repro,
2008-07-07,7.54, 0.92, 13.92, 2.22, 1.55, 7.74, repro,
2008-07-08,8.96, 1.12, 15.10, 2.23, 1.59, 7.78, repro,
2008-07-09,7.58, -1.50, 12.20, 2.21, 1.55, 7.61, repro,
2008-07-11,4.06, -1.19, 16.83, 2.28, 1.65, 8.10, repro,
2008-07-12,5.95, -1.40, 25.98, 2.62, 1.85, 9.29, repro,
2008-07-13,5.27, 1.05, 25.30, 2.59, 1.78, 8.57, repro,
2008-07-14,4.21, -0.18, 31.62, 2.69, 1.85, 9.73, repro,
2008-07-15,6.59, -0.30, 20.50, 2.41, 1.63, 8.67, repro,
2008-07-16,4.84, -1.04, 14.51, 2.27, 1.59, 7.77, repro,
2008-07-17,5.60, -2.26, 14.69, 2.36, 1.65, 8.26, repro,
2008-07-18,5.06, -2.42, 16.69, 2.29, 1.64, 7.90, repro,
2008-07-19,5.76, -1.17, 14.60, 2.24, 1.59, 7.72, repro,
2008-07-20,5.80, -0.36, 17.28, 2.25, 1.58, 7.80, repro,
2008-07-21,4.52, -0.83, 17.09, 2.25, 1.54, 7.65, repro,
2008-07-22,5.43, -0.46, 14.06, 2.41, 1.64, 8.07, repro,
2008-07-23,2.16, -2.19, 36.12, 2.56, 1.77, 8.86, repro,
2008-07-24,4.82, -2.80, 17.69, 2.30, 1.59, 8.06, repro,
2008-07-25,3.59, 1.81, 25.91, 3.14, 2.20, 11.39, repro,
2008-07-26,5.30, -0.13, 16.14, 2.25, 1.57, 7.76, repro,
2008-07-27,4.75, -0.92, 11.94, 2.48, 1.71, 8.44, repro,
2008-07-28,4.43, -0.21, 15.39, 2.25, 1.59, 8.04, repro,
2008-07-29,4.20, -1.92, 17.82, 2.23, 1.56, 8.03, repro,
2008-07-30,6.82, -1.33, 17.44, 2.36, 1.69, 8.32, repro,
2008-07-31,5.03, -0.36, 8.82, 2.20, 1.53, 7.63, repro,
2008-08-01,4.35, -1.38, 9.07, 2.31, 1.65, 8.21, repro,
2008-08-02,4.19, -0.56, 16.14, 2.23, 1.58, 7.77, repro,
2008-08-03,2.65, 0.02, 15.90, 2.23, 1.59, 7.69, repro,
2008-08-04,5.08, -1.20, 15.28, 3.04, 2.10, 9.89, repro,
2008-08-05,3.87, -0.37, 12.26, 2.24, 1.58, 7.72, repro,
2008-08-06,4.06, 1.63, 13.88, 2.25, 1.59, 7.83, repro,
2008-08-07,5.84, 0.20, 14.96, 2.40, 1.67, 8.60, repro,
2008-08-08,3.88, -0.89, 10.84, 2.36, 1.64, 8.08, repro,
2008-08-09,4.41, -0.04, 20.08, 2.47, 1.69, 8.43, repro,
2008-08-10,1.72, -0.06, 15.77, 2.34, 1.69, 8.20, repro,
2008-08-11,3.53, -1.43, 14.14, 2.41, 1.71, 8.43, repro,
2008-08-12,2.37, -0.52, 19.24, 2.26, 1.61, 8.02, repro,
2008-08-13,2.44, -0.20, 27.66, 2.44, 1.72, 8.66, repro,
2008-08-14,0.73, 0.14, 11.30, 2.28, 1.63, 8.08, repro,
2008-08-15,4.27, 0.08, 17.43, 2.31, 1.65, 8.05, repro,
2008-08-16,1.84, -0.58, 24.18, 2.25, 1.56, 7.79, repro,
2008-08-17,3.68, 0.98, 17.59, 2.31, 1.61, 8.04, repro,
2008-08-18,2.58, 0.40, 22.86, 2.50, 1.79, 8.59, repro,
2008-08-19,4.49, 1.87, 15.71, 2.32, 1.60, 7.93, repro,
2008-08-21,3.45, 0.73, 19.29, 2.23, 1.55, 7.64, repro,
2008-08-22,4.11, 0.76, 16.57, 2.26, 1.59, 7.84, repro,
2008-08-23,2.96, 0.53, 19.92, 2.30, 1.62, 7.96, repro,
2008-08-24,4.20, 0.37, 20.33, 2.35, 1.65, 8.04, repro,
2008-08-25,3.01, 0.59, 23.37, 2.28, 1.62, 8.08, repro,
2008-08-26,4.20, 1.11, 17.36, 2.25, 1.56, 7.75, repro,
2008-08-27,3.92, 0.38, 17.77, 2.37, 1.64, 8.26, repro,
2008-08-28,1.91, -0.69, 20.19, 2.55, 1.76, 8.98, repro,
2008-08-29,6.25, -0.44, 16.81, 2.36, 1.64, 8.19, repro,
2008-08-30,5.83, 0.57, 13.68, 2.45, 1.67, 8.45, repro,
2008-08-31,4.16, -0.57, 21.89, 2.79, 1.85, 8.92, repro,
2008-09-01,6.10, -0.29, 21.02, 2.39, 1.62, 8.23, repro,
2008-09-02,5.36, -0.82, 15.91, 2.41, 1.65, 8.32, repro,
2008-09-03,5.80, -0.49, 18.39, 2.37, 1.64, 8.11, repro,
2008-09-04,5.58, -2.03, 22.12, 2.84, 1.99, 9.76, repro,
2008-09-05,5.07, -0.32, 21.39, 2.51, 1.70, 8.56, repro,
2008-09-06,4.57, 1.04, 24.67, 2.41, 1.66, 8.25, repro,
2008-09-07,5.51, -1.39, 25.01, 2.48, 1.73, 8.70, repro,
2008-09-09,5.32, -1.26, 16.97, 2.43, 1.69, 8.76, repro,
2008-09-10,6.35, -1.27, 19.08, 2.40, 1.69, 8.48, repro,
2008-09-11,5.42, -0.03, 23.45, 2.80, 1.90, 9.24, repro,
2008-09-12,4.86, -0.51, 25.97, 2.47, 1.73, 8.52, repro,
2008-09-13,5.00, -0.37, 24.19, 2.39, 1.61, 8.05, repro,
2008-09-14,4.95, -0.94, 19.96, 2.32, 1.60, 7.96, repro,
2008-09-15,5.51, -1.16, 18.20, 2.58, 1.75, 8.62, repro,
2008-09-16,5.09, -0.24, 25.09, 2.45, 1.65, 8.10, repro,
2008-09-17,8.31, 0.35, 21.78, 2.54, 1.80, 8.81, repro,
2008-09-18,6.50, 1.73, 19.03, 2.59, 1.80, 9.07, repro,
2008-09-19,3.91, -0.35, 14.53, 2.30, 1.62, 7.95, repro,
2008-09-20,5.08, -1.42, 20.96, 2.31, 1.63, 8.03, repro,
2008-09-21,4.28, 0.06, 10.21, 2.26, 1.58, 7.78, repro,
2008-09-22,4.87, -0.61, 15.21, 2.36, 1.69, 8.39, repro,
2008-09-23,5.81, 1.33, 13.00, 2.24, 1.57, 7.77, repro,
2008-09-25,5.28, 1.35, 14.30, 2.31, 1.63, 7.97, repro,
2008-09-26,4.64, 0.79, 19.19, 2.30, 1.60, 8.09, repro,
2008-09-27,3.86, 1.61, 24.99, 2.33, 1.63, 8.09, repro,
2008-09-28,6.39, 2.65, 14.17, 2.24, 1.61, 8.06, repro,
2008-09-29,6.21, 1.52, 9.58, 2.26, 1.55, 7.76, repro,
2008-09-30,6.53, 0.76, 13.40, 2.28, 1.60, 7.83, repro,
2008-10-01,5.56, 1.68, 12.62, 2.38, 1.60, 8.11, repro,
2008-10-02,6.46, -1.74, 23.91, 2.65, 2.00, 10.16, repro,
2008-10-03,7.77, 1.83, 21.86, 2.55, 1.78, 8.91, repro,
2008-10-04,4.53, 1.60, 22.63, 2.38, 1.66, 8.20, repro,
2008-10-05,3.77, 1.66, 24.03, 2.28, 1.59, 7.96, repro,
2008-10-06,2.85, 2.25, 19.35, 2.31, 1.60, 8.01, repro,
2008-10-07,4.88, 1.31, 16.38, 2.26, 1.57, 7.87, repro,
2008-10-08,4.86, 0.45, 12.15, 2.36, 1.65, 8.26, repro,
2008-10-09,5.42, 1.07, 15.20, 2.19, 1.55, 7.65, repro,
2008-10-10,4.45, 0.91, 15.23, 2.26, 1.60, 7.86, repro,
2008-10-11,2.45, -0.40, 17.20, 2.69, 1.85, 9.75, repro,
2008-10-12,5.02, 1.66, 11.39, 2.43, 1.74, 8.76, repro,
2008-10-13,8.49, 2.94, 19.40, 4.52, 3.09, 14.63, repro,
2008-10-24,3.15, 7.41, 20.58, 7.00, 4.05, 21.36, repro,
2008-10-25,5.63, 5.78, 25.62, 4.69, 3.49, 16.62, repro,
2008-10-26,8.08, 5.88, 36.02, 5.85, 4.06, 19.49, repro,
2008-10-27,7.28, -0.20, 17.67, 2.20, 1.53, 7.69, repro,
2008-10-28,3.47, 1.74, 14.41, 2.40, 1.66, 8.41, repro,
2008-10-29,3.21, 5.38, 21.05, 7.73, 5.46, 27.72, repro,
2008-10-30,4.09, 4.13, 7.67, 2.67, 1.81, 9.06, repro,
2008-10-31,2.75, 3.37, 9.58, 2.23, 1.59, 7.92, repro,
2008-11-01,2.40, 3.24, 12.88, 2.19, 1.56, 7.68, repro,
2008-11-02,-0.76, 0.83, 5.74, 4.76, 3.45, 16.69, repro,
2008-11-03,3.35, 3.48, 10.97, 4.84, 3.20, 16.82, repro,
2008-11-04,-5.16, 5.54, 19.82, 5.31, 4.10, 17.80, repro,
2008-11-06,1.03, 2.26, 9.04, 2.55, 1.79, 9.06, repro,
2008-11-07,2.82, 1.08, 6.52, 2.31, 1.58, 8.43, repro,
2008-11-08,6.32, 2.13, 7.44, 2.54, 1.78, 8.86, repro,
2008-11-09,6.22, 2.46, 10.72, 3.88, 2.55, 12.62, repro,
2008-11-10,2.52, 1.68, 8.80, 2.17, 1.52, 7.62, repro,
2008-11-11,2.31, 1.97, 9.41, 2.16, 1.48, 7.57, repro,
2008-11-12,2.48, 1.30, 15.88, 2.23, 1.54, 7.78, repro,
2008-11-17,3.41, 1.96, 8.85, 2.24, 1.55, 7.70, repro,
2008-11-18,5.61, -0.43, 15.24, 5.54, 3.26, 17.18, repro,
2008-11-20,4.80, -0.42, -3.95, 2.26, 1.56, 7.91, repro,
2008-11-21,4.67, 1.58, 5.70, 2.25, 1.55, 7.63, repro,
2008-11-22,1.81, 0.16, 2.01, 2.20, 1.53, 7.80, repro,
2008-11-23,4.73, 0.96, 3.12, 2.40, 1.64, 7.98, repro,
2008-11-25,2.26, -0.33, 15.44, 2.48, 1.75, 8.89, repro,
2008-11-28,3.28, 1.98, 9.95, 2.26, 1.58, 7.94, repro,
2008-11-29,4.80, 2.07, 13.35, 2.16, 1.53, 7.73, repro,
2008-11-30,2.99, 2.05, 12.76, 2.21, 1.52, 7.56, repro,
2008-12-01,4.70, 1.62, 17.27, 2.21, 1.51, 7.66, repro,
2008-12-15,4.87, -1.21, 13.10, 2.29, 1.60, 7.95, repro,
2008-12-16,4.43, 2.04, 8.84, 4.27, 2.77, 14.37, repro,
2008-12-17,3.96, 1.51, 15.15, 2.22, 1.58, 7.84, repro,
2008-12-18,5.55, -0.10, 17.03, 2.13, 1.48, 7.46, repro,
2008-12-19,5.80, 0.23, 18.35, 2.40, 1.68, 8.32, repro,
2008-12-20,3.66, 0.89, 19.42, 2.14, 1.47, 7.43, repro,
2008-12-21,4.60, 1.98, 18.55, 2.19, 1.51, 7.73, repro,
2008-12-22,4.48, 3.13, 16.38, 2.20, 1.50, 7.65, repro,
2008-12-23,3.69, 2.08, 24.78, 2.48, 1.71, 8.76, repro,
2008-12-24,4.64, 1.75, 32.47, 2.27, 1.57, 8.01, repro,
2008-12-25,5.29, 1.95, 25.53, 2.16, 1.50, 7.56, repro,
2008-12-26,2.75, 1.95, 24.89, 2.20, 1.53, 7.63, repro,
2008-12-27,5.57, 1.42, 19.63, 2.21, 1.52, 7.66, repro,
2008-12-28,6.47, 2.98, 19.42, 2.16, 1.50, 7.48, repro,
2008-12-29,7.51, 4.58, 16.15, 2.17, 1.50, 7.52, repro,
2008-12-30,3.69, 1.39, 16.52, 2.16, 1.50, 7.55, repro,
2008-12-31,2.91, 2.81, 11.98, 2.41, 1.68, 8.61, repro,
2009-01-01,4.39, 1.84, 13.71, 2.41, 1.64, 8.31, repro,
2009-01-02,4.65, 3.46, 11.56, 2.29, 1.57, 8.00, repro,
2009-01-03,5.48, 3.41, 5.62, 2.43, 1.70, 8.56, repro,
2009-01-04,4.65, 2.36, 13.48, 2.24, 1.55, 7.80, repro,
2009-01-05,5.49, 2.25, 18.07, 2.25, 1.56, 7.78, repro,
2009-01-06,5.52, 1.72, 18.22, 2.25, 1.54, 7.75, repro,
2009-01-07,4.62, 0.52, 20.93, 2.25, 1.56, 7.69, repro,
2009-01-08,4.83, 2.97, 15.30, 2.28, 1.58, 7.84, repro,
2009-01-09,3.66, 1.94, 23.18, 2.56, 1.82, 9.04, repro,
2009-01-10,4.40, 1.72, 17.19, 2.41, 1.68, 8.29, repro,
2009-01-11,3.43, 2.02, 22.90, 2.24, 1.59, 7.70, repro,
2009-01-12,2.63, 1.69, 21.80, 2.30, 1.60, 8.10, repro,
2009-01-13,4.42, 1.91, 15.96, 2.27, 1.59, 7.79, repro,
2009-01-14,6.56, 2.27, 17.89, 2.49, 1.79, 8.74, repro,
2009-01-15,4.81, 2.45, 20.56, 2.68, 1.84, 9.15, repro,
2009-01-16,6.22, 1.75, 17.96, 2.23, 1.55, 7.77, repro,
2009-01-17,4.84, 2.39, 18.42, 2.31, 1.59, 7.93, repro,
2009-01-18,5.41, 1.01, 19.36, 2.25, 1.59, 7.87, repro,
2009-01-19,5.88, 1.58, 17.39, 2.45, 1.73, 8.49, repro,
2009-01-20,5.11, 2.73, 18.41, 2.35, 1.65, 8.08, repro,
2009-01-21,5.36, -0.19, 19.99, 3.38, 2.36, 11.31, repro,
2009-01-22,4.23, 1.49, 17.65, 2.29, 1.61, 8.07, repro,
2009-01-23,2.75, 2.18, 13.82, 2.23, 1.53, 7.66, repro,
2009-01-24,4.84, 2.13, 7.93, 2.26, 1.58, 7.75, repro,
2009-01-25,5.10, 1.18, 15.48, 2.24, 1.55, 7.79, repro,
2009-01-26,3.90, 2.53, 15.52, 2.32, 1.65, 8.43, repro,
2009-01-27,6.17, 2.56, 20.95, 2.22, 1.55, 7.70, repro,
2009-01-28,3.68, 2.95, 20.09, 2.19, 1.51, 7.56, repro,
2009-01-29,5.82, 3.69, 20.15, 2.25, 1.54, 7.71, repro,
2009-01-30,6.19, 2.63, 12.58, 2.22, 1.50, 7.59, repro,
2009-01-31,7.27, 0.47, 11.76, 2.29, 1.56, 7.92, repro,
2009-02-01,8.38, 2.91, 6.92, 2.20, 1.51, 7.64, repro,
2009-02-02,6.74, 1.34, 8.96, 2.19, 1.53, 7.59, repro,
2009-02-03,3.39, 2.19, 8.53, 2.24, 1.57, 7.90, repro,
2009-02-04,6.76, 2.97, 19.52, 2.48, 1.80, 9.55, repro,
2009-02-05,4.10, 3.70, 16.97, 2.32, 1.57, 8.30, repro,
2009-02-06,5.57, 3.59, 19.39, 2.37, 1.68, 8.44, repro,
2009-02-07,5.05, 2.46, 20.46, 2.23, 1.55, 7.76, repro,
2009-02-08,3.43, 2.86, 23.26, 2.20, 1.56, 7.81, repro,
2009-02-09,5.12, 4.08, 17.78, 2.29, 1.62, 8.07, repro,
2009-02-10,4.77, 2.49, 15.28, 2.19, 1.49, 7.62, repro,
2009-02-11,5.52, 2.40, 11.65, 2.46, 1.66, 8.49, repro,
2009-02-12,6.20, 2.53, 10.02, 2.25, 1.52, 7.75, repro,
2009-02-13,4.83, 1.76, 5.23, 2.16, 1.50, 7.52, repro,
2009-02-14,5.57, 1.20, 6.47, 2.40, 1.65, 8.41, repro,
2009-02-15,5.23, 1.72, 6.06, 2.40, 1.69, 8.28, repro,
2009-02-16,4.31, 2.70, 12.39, 2.31, 1.59, 8.00, repro,
2009-02-17,2.83, 2.94, 11.89, 2.20, 1.49, 7.56, repro,
2009-02-18,4.58, 3.00, 7.57, 2.47, 1.75, 8.74, repro,
2009-02-19,3.24, 1.67, 11.01, 2.19, 1.53, 7.56, repro,
2009-02-20,5.44, 2.81, 16.91, 2.24, 1.53, 7.73, repro,
2009-02-21,3.34, 2.43, 9.18, 2.22, 1.53, 7.72, repro,
2009-02-22,3.37, 1.65, 3.12, 2.18, 1.48, 7.52, repro,
2009-02-23,2.68, 2.92, 3.21, 2.21, 1.52, 7.60, repro,
2009-02-24,5.68, 2.07, 12.79, 2.42, 1.74, 8.39, repro,
2009-02-25,5.50, 4.48, 0.33, 229.05, 52.99, 644.56, repro,
2009-02-26,3.85, 1.86, 10.31, 2.28, 1.53, 7.84, repro,
2009-02-27,4.09, 2.45, 4.75, 2.48, 1.68, 8.81, repro,
2009-02-28,3.73, 1.80, 4.27, 2.49, 1.76, 8.47, repro,
2009-03-01,3.58, 2.90, 1.69, 2.28, 1.61, 7.97, repro,
2009-03-02,4.38, 1.72, -1.94, 2.22, 1.56, 7.62, repro,
2009-03-03,3.81, 0.53, 0.13, 2.27, 1.60, 7.96, repro,
2009-03-04,3.65, 2.07, -3.19, 2.44, 1.69, 8.33, repro,
2009-03-05,4.48, 2.70, 1.85, 2.26, 1.56, 7.76, repro,
2009-03-06,5.24, 3.88, 13.46, 2.44, 1.70, 8.39, repro,
2009-03-07,4.04, 2.27, 11.50, 2.20, 1.53, 7.62, repro,
2009-03-08,3.09, 2.13, 7.34, 2.29, 1.60, 7.94, repro,
2009-03-09,3.46, 1.81, 4.36, 2.22, 1.52, 7.63, repro,
2009-03-10,2.30, 1.72, 10.06, 2.37, 1.70, 8.42, repro,
2009-03-11,5.68, 2.53, 11.01, 2.31, 1.57, 8.24, repro,
2009-03-12,5.70, 3.76, 10.22, 2.39, 1.63, 8.20, repro,
2009-03-13,1.14, 2.37, 11.96, 2.57, 1.82, 8.66, repro,
2009-03-14,4.97, 2.21, 15.29, 2.39, 1.63, 8.27, repro,
2009-03-15,3.86, 2.11, 5.35, 2.30, 1.65, 8.07, repro,
2009-03-16,3.92, 4.00, 2.57, 2.32, 1.61, 7.97, repro,
2009-03-17,2.95, 3.77, 0.91, 2.22, 1.52, 7.65, repro,
2009-03-18,3.59, 2.87, 2.92, 2.19, 1.51, 7.59, repro,
2009-03-19,1.07, 2.14, 0.35, 2.24, 1.55, 7.76, repro,
2009-03-20,0.59, 2.93, 8.33, 2.24, 1.55, 7.73, repro,
2009-03-21,2.73, 4.56, 5.82, 2.34, 1.59, 8.18, repro,
2009-03-22,1.32, 3.68, -3.25, 2.22, 1.54, 7.83, repro,
2009-03-23,2.08, 3.99, -1.45, 2.28, 1.55, 7.80, repro,
2009-03-24,1.45, 3.72, -0.87, 2.49, 1.66, 8.30, repro,
2009-03-25,-0.51, 3.61, 3.70, 2.36, 1.65, 8.08, repro,
2009-03-26,2.30, 3.97, 7.74, 2.36, 1.59, 7.99, repro,
2009-03-27,3.04, 3.98, 6.61, 2.21, 1.53, 7.63, repro,
2009-03-28,2.11, 3.87, 4.06, 2.18, 1.50, 7.55, repro,
2009-03-29,4.17, 3.82, -0.14, 2.19, 1.52, 7.59, repro,
2009-03-30,2.45, 4.80, 4.59, 2.21, 1.51, 7.58, repro,
2009-03-31,-0.39, 4.15, 2.01, 2.28, 1.57, 7.95, repro,
2009-04-01,1.75, 3.50, 5.84, 2.23, 1.55, 7.61, repro,
2009-04-02,0.15, 4.12, 8.28, 2.24, 1.59, 8.08, repro,
2009-04-03,0.81, 3.62, 1.75, 2.21, 1.54, 7.64, repro,
2009-04-04,1.61, 3.45, -5.33, 2.32, 1.58, 7.85, repro,
2009-04-05,0.97, 3.80, -7.05, 2.27, 1.56, 7.73, repro,
2009-04-06,1.46, 3.18, -3.82, 2.33, 1.54, 7.82, repro,
2009-04-07,1.26, 3.20, -1.40, 2.28, 1.56, 7.68, repro,
2009-04-08,5.21, 4.59, 5.64, 2.19, 1.51, 7.56, repro,
2009-04-09,2.31, 4.77, 9.53, 2.55, 1.74, 9.07, repro,
2009-04-10,2.39, 4.24, 2.07, 2.34, 1.61, 7.92, repro,
2009-04-11,1.64, 3.52, -2.67, 2.45, 1.68, 8.18, repro,
2009-04-12,1.54, 1.65, -1.55, 2.42, 1.69, 8.29, repro,
2009-04-13,0.54, 3.13, 0.92, 2.42, 1.65, 8.10, repro,
2009-04-14,3.17, 2.14, -2.04, 2.32, 1.59, 7.82, repro,
2009-04-15,4.53, 2.75, -14.44, 2.47, 1.65, 8.43, repro,
2009-04-16,1.37, 2.08, -2.38, 2.55, 1.70, 8.51, repro,
2009-04-17,-0.16, 2.00, -6.74, 2.20, 1.52, 7.55, repro,
2009-04-18,0.39, 1.35, 3.55, 2.38, 1.61, 8.00, repro,
2009-04-19,0.36, 4.14, 7.57, 2.35, 1.58, 7.90, repro,
2009-04-24,1.89, 4.62, 10.78, 2.15, 1.50, 7.40, repro,
2009-04-25,-3.25, 6.67, 15.29, 12.30, 16.62, 26.34, repro,
2009-04-26,-4.18, 2.76, 7.54, 12.21, 16.36, 26.46, repro,
2009-04-27,0.70, 3.20, 4.97, 2.32, 1.56, 7.87, repro,
2009-04-28,1.90, 3.76, 1.76, 4.08, 2.84, 13.13, repro,
2009-04-29,0.24, 2.30, 5.11, 2.33, 1.59, 8.03, repro,
2009-04-30,0.16, 3.51, 7.14, 2.32, 1.58, 7.88, repro,
2009-05-01,0.21, 3.91, 10.94, 2.20, 1.53, 7.52, repro,
2009-05-04,1.49, 2.65, 8.82, 2.22, 1.54, 7.66, repro,
2009-05-05,0.70, 4.13, 5.41, 2.20, 1.51, 7.48, repro,
2009-05-06,0.72, 3.32, 6.31, 2.55, 1.75, 8.39, repro,
2009-05-07,0.79, 3.50, 4.11, 2.27, 1.55, 7.84, repro,
2009-05-08,3.40, 1.95, -0.46, 2.46, 1.70, 8.38, repro,
2009-05-09,1.61, 2.22, 3.97, 2.28, 1.59, 7.83, repro,
2009-05-10,0.04, 3.38, 5.75, 2.36, 1.60, 7.85, repro,
2009-05-11,0.48, 5.07, 7.26, 2.40, 1.60, 7.87, repro,
2009-05-12,1.69, 3.41, 4.65, 2.30, 1.59, 7.85, repro,
2009-05-13,2.43, 1.68, 9.66, 2.40, 1.61, 7.94, repro,
2009-05-14,2.12, 3.16, 8.80, 2.44, 1.70, 8.22, repro,
2009-05-15,1.54, 1.97, 1.00, 2.29, 1.56, 7.79, repro,
2009-05-16,3.97, 2.79, 8.42, 2.25, 1.55, 7.64, repro,
2009-05-17,4.60, 3.28, 6.46, 2.37, 1.59, 7.83, repro,
2009-05-18,3.53, 2.17, 7.65, 2.34, 1.60, 7.87, repro,
2009-05-19,2.76, 3.38, 3.78, 2.40, 1.65, 8.06, repro,
2009-05-20,4.40, 1.87, 12.49, 2.18, 1.51, 7.51, repro,
2009-05-21,3.17, 2.95, 11.68, 2.20, 1.51, 7.59, repro,
2009-05-22,3.97, 2.60, 9.34, 2.19, 1.51, 7.56, repro,
2009-05-23,3.58, 2.32, 3.22, 2.24, 1.52, 7.70, repro,
2009-05-24,2.32, 2.64, 7.09, 2.30, 1.58, 7.78, repro,
2009-05-25,2.19, 3.27, 7.39, 2.24, 1.54, 7.72, repro,
2009-05-26,0.44, 2.38, 12.15, 2.33, 1.60, 7.95, repro,
2009-05-27,2.44, 2.54, 7.16, 2.25, 1.55, 7.94, repro,
2009-05-28,2.87, 1.61, 9.69, 2.25, 1.56, 7.76, repro,
2009-05-29,1.98, 2.78, 5.77, 2.25, 1.58, 7.66, repro,
2009-05-30,1.86, 3.12, 4.58, 2.55, 1.76, 8.39, repro,
2009-05-31,5.58, 2.24, -0.32, 2.24, 1.57, 7.73, repro,
2009-06-01,3.13, 4.13, 4.62, 2.30, 1.60, 7.90, repro,
2009-06-02,6.73, 4.75, 1.73, 2.21, 1.53, 7.63, repro,
2009-06-03,3.84, 5.00, 10.77, 2.22, 1.53, 7.59, repro,
2009-06-04,7.32, 4.41, 6.79, 2.38, 1.61, 8.25, repro,
2009-06-05,4.78, 2.67, 5.25, 2.54, 1.76, 8.75, repro,
2009-06-06,4.71, 2.74, 13.50, 2.34, 1.62, 8.15, repro,
2009-06-07,4.71, 1.75, 7.64, 2.20, 1.53, 7.61, repro,
2009-06-08,6.21, 0.90, 0.50, 2.28, 1.57, 7.79, repro,
2009-06-09,4.39, 1.29, 8.38, 2.19, 1.53, 7.50, repro,
2009-06-10,4.10, 2.64, 6.72, 2.20, 1.54, 7.64, repro,
2009-06-11,4.35, 3.56, 10.84, 2.24, 1.54, 7.62, repro,
2009-06-12,3.80, 4.87, 8.17, 2.23, 1.52, 7.59, repro,
2009-06-13,4.62, 3.44, 8.93, 2.20, 1.52, 7.57, repro,
2009-06-14,4.64, 2.61, 14.03, 2.21, 1.51, 7.45, repro,
2009-06-16,7.02, 2.58, 14.39, 2.23, 1.54, 7.62, repro,
2009-06-17,5.37, 3.04, 19.61, 2.19, 1.53, 7.59, repro,
2009-06-18,4.45, 3.39, 18.27, 2.22, 1.53, 7.58, repro,
2009-06-19,4.92, 2.98, 8.24, 2.31, 1.61, 7.78, repro,
2009-06-20,4.35, 2.92, 9.10, 2.28, 1.57, 7.68, repro,
2009-06-21,4.12, 3.39, 5.28, 2.59, 1.70, 8.75, repro,
2009-06-22,2.68, 2.82, 12.27, 2.19, 1.52, 7.55, repro,
2009-06-23,1.54, 3.06, 18.73, 2.22, 1.55, 7.67, repro,
2009-06-24,1.34, 3.58, 16.22, 2.43, 1.61, 8.19, repro,
2009-06-25,1.35, 4.10, 14.69, 2.31, 1.56, 7.81, repro,
2009-06-26,1.93, 2.37, 10.52, 2.29, 1.57, 7.75, repro,
2009-06-27,-0.28, 1.72, 8.28, 2.34, 1.58, 7.82, repro,
2009-06-28,1.40, 1.84, 14.45, 2.55, 1.75, 8.38, repro,
2009-06-29,1.58, 2.64, 11.22, 2.35, 1.62, 8.22, repro,
2009-06-30,1.27, 2.90, 12.04, 2.36, 1.60, 7.86, repro,
2009-07-01,-0.89, 1.87, 8.83, 2.37, 1.60, 8.11, repro,
2009-07-02,2.21, 1.18, 9.72, 2.46, 1.69, 8.44, repro,
2009-07-03,0.14, 1.18, 7.67, 2.23, 1.57, 7.73, repro,
2009-07-04,-0.02, 0.15, 9.51, 2.38, 1.67, 8.29, repro,
2009-07-05,-0.44, 0.90, 12.01, 2.36, 1.62, 7.95, repro,
2009-07-06,-0.81, 1.24, 10.90, 2.27, 1.58, 7.72, repro,
2009-07-07,-1.53, 1.65, 17.89, 2.23, 1.55, 7.62, repro,
2009-07-08,-1.30, -0.44, 18.17, 2.41, 1.63, 7.98, repro,
2009-07-09,-2.13, -0.31, 15.75, 2.22, 1.53, 7.60, repro,
2009-07-10,1.66, 0.16, 14.94, 2.27, 1.57, 7.80, repro,
2009-07-11,-0.70, 0.82, 16.98, 2.24, 1.54, 7.66, repro,
2009-07-12,-0.09, 0.90, 15.82, 2.26, 1.57, 7.82, repro,
2009-07-13,-2.24, 0.34, 13.78, 2.42, 1.66, 8.12, repro,
2009-07-14,-1.80, 1.03, 15.58, 2.35, 1.61, 8.10, repro,
2009-07-15,0.80, 0.37, 17.67, 2.28, 1.55, 7.80, repro,
2009-07-16,-1.08, 0.76, 13.84, 2.22, 1.54, 7.71, repro,
2009-07-17,-1.58, -0.10, 8.05, 2.21, 1.51, 7.53, repro,
2009-07-18,-1.12, -0.29, 8.58, 2.26, 1.55, 7.75, repro,
2009-07-19,-2.92, 1.19, 12.17, 2.26, 1.53, 7.62, repro,
2009-07-20,-1.33, 0.50, 15.30, 2.28, 1.63, 7.83, repro,
2009-07-21,-2.18, 0.65, 9.58, 2.22, 1.53, 7.56, repro,
2009-07-22,-4.34, -0.14, 16.56, 2.58, 1.73, 8.52, repro,
2009-07-23,-1.13, 0.16, 9.81, 2.27, 1.55, 7.68, repro,
2009-07-24,-2.45, 0.06, 19.72, 2.36, 1.62, 7.93, repro,
2009-07-25,-1.72, 0.42, 19.39, 2.35, 1.61, 8.10, repro,
2009-07-26,-3.99, 0.60, 15.05, 2.28, 1.54, 7.83, repro,
2009-07-27,-3.43, -0.06, 16.11, 2.31, 1.60, 7.70, repro,
2009-07-28,-3.60, -0.68, 18.29, 2.30, 1.58, 7.74, repro,
2009-07-29,-3.93, -1.09, 19.10, 2.28, 1.57, 7.68, repro,
2009-07-30,-3.70, 0.65, 18.36, 2.26, 1.58, 7.77, repro,
2009-07-31,-2.55, 1.14, 23.84, 2.31, 1.57, 7.72, repro,
2009-08-01,-4.17, -0.39, 20.05, 2.23, 1.54, 7.64, repro,
2009-08-02,-3.57, -0.94, 18.89, 2.26, 1.57, 7.59, repro,
2009-08-03,-3.51, -0.18, 21.18, 2.33, 1.59, 7.81, repro,
2009-08-04,-2.57, -0.97, 13.36, 2.27, 1.54, 7.57, repro,
2009-08-05,-2.96, -0.77, 15.71, 2.54, 1.77, 8.99, repro,
2009-08-06,-4.37, -0.90, 26.64, 2.30, 1.55, 7.75, repro,
2009-08-07,-4.29, -0.11, 14.82, 2.43, 1.70, 8.32, repro,
2009-08-08,-4.46, 0.37, 23.91, 2.26, 1.56, 8.10, repro,
2009-08-09,-2.43, -0.25, 14.50, 2.35, 1.69, 8.36, repro,